N811TM RJTT-PAFA

Flight info

Callsign N811TM
Flight time N/A
Altitude 45000
Route OPPAR UTIBO Y803 POROT A590 POETT J120 FAI
Aircraft GLF6/M-SBDE2E3FGHIJ4J5M1RWXY/LB1D1

Departure

Time N/A
Airport Tokyo Haneda International Airport (RJTT)

Arrival

Time 2026-04-19 04:25
Airport Fairbanks International Airport (PAFA)
Time Latitude Longitude Altitude Speed Heading
2026-04-19 03:09 59.44978 -165.26636 44494 ft 543 kts 52°
2026-04-19 03:09 59.47365 -165.20906 44504 ft 543 kts 52°
2026-04-19 03:10 59.52139 -165.09410 44502 ft 544 kts 52°
2026-04-19 03:10 59.56903 -164.97882 44515 ft 544 kts 52°
2026-04-19 03:11 59.61644 -164.86351 44533 ft 545 kts 52°
2026-04-19 03:11 59.66385 -164.74760 44542 ft 545 kts 52°
2026-04-19 03:12 59.71119 -164.63130 44552 ft 545 kts 52°
2026-04-19 03:12 59.75838 -164.51480 44563 ft 545 kts 52°
2026-04-19 03:13 59.80531 -164.39836 44572 ft 546 kts 52°
2026-04-19 03:13 59.85242 -164.28088 44583 ft 545 kts 53°
2026-04-19 03:14 59.89928 -164.16344 44594 ft 546 kts 53°
2026-04-19 03:14 59.94640 -164.04474 44600 ft 547 kts 53°
2026-04-19 03:15 59.99326 -163.92609 44608 ft 546 kts 53°
2026-04-19 03:15 60.03977 -163.80771 44597 ft 546 kts 53°
2026-04-19 03:16 60.08647 -163.68823 44607 ft 546 kts 53°
2026-04-19 03:16 60.13265 -163.56950 44609 ft 546 kts 53°
2026-04-19 03:17 60.17924 -163.44910 44622 ft 546 kts 53°
2026-04-19 03:17 60.22525 -163.32958 44629 ft 546 kts 54°
2026-04-19 03:18 60.27149 -163.20883 44635 ft 547 kts 54°
2026-04-19 03:18 60.31754 -163.08794 44641 ft 547 kts 53°
2026-04-19 03:19 60.36345 -162.96681 44653 ft 546 kts 53°
2026-04-19 03:19 60.40928 -162.84525 44647 ft 546 kts 53°
2026-04-19 03:20 60.45473 -162.72406 44661 ft 546 kts 53°
2026-04-19 03:20 60.50032 -162.60188 44668 ft 546 kts 53°
2026-04-19 03:21 60.54607 -162.47861 44667 ft 546 kts 53°
2026-04-19 03:21 60.59133 -162.35599 44674 ft 545 kts 53°
2026-04-19 03:22 60.63646 -162.23309 44703 ft 544 kts 54°
2026-04-19 03:22 60.68141 -162.11005 44715 ft 544 kts 54°
2026-04-19 03:23 60.72604 -161.98723 44722 ft 544 kts 54°
2026-04-19 03:23 60.77077 -161.86348 44734 ft 544 kts 54°
2026-04-19 03:24 60.81735 -161.74232 44743 ft 545 kts 51°
2026-04-19 03:24 60.86509 -161.62186 44742 ft 546 kts 51°
2026-04-19 03:25 60.91238 -161.50168 44739 ft 546 kts 51°
2026-04-19 03:25 60.95977 -161.38058 44744 ft 546 kts 51°
2026-04-19 03:26 61.00706 -161.25913 44759 ft 546 kts 52°
2026-04-19 03:26 61.05436 -161.13698 44778 ft 544 kts 52°
2026-04-19 03:27 61.10117 -161.01550 44762 ft 543 kts 52°
2026-04-19 03:27 61.14777 -160.89388 44739 ft 543 kts 52°
2026-04-19 03:28 61.19432 -160.77177 44772 ft 544 kts 52°
2026-04-19 03:28 61.24093 -160.64880 44752 ft 545 kts 51°
2026-04-19 03:29 61.28746 -160.52545 44755 ft 545 kts 51°
2026-04-19 03:29 61.33383 -160.40181 44770 ft 545 kts 51°
2026-04-19 03:30 61.38020 -160.27751 44768 ft 545 kts 52°
2026-04-19 03:30 61.42622 -160.15353 44784 ft 546 kts 52°
2026-04-19 03:31 61.47245 -160.02828 44779 ft 545 kts 52°
2026-04-19 03:31 61.51834 -159.90321 44787 ft 546 kts 52°
2026-04-19 03:32 61.56403 -159.77808 44779 ft 545 kts 52°
2026-04-19 03:32 61.60984 -159.65190 44773 ft 545 kts 52°
2026-04-19 03:33 61.65562 -159.52512 44784 ft 545 kts 52°
2026-04-19 03:33 61.70103 -159.39865 44785 ft 545 kts 52°
2026-04-19 03:34 61.74621 -159.27214 44766 ft 545 kts 52°
2026-04-19 03:34 61.79174 -159.14397 44762 ft 546 kts 52°
2026-04-19 03:35 61.83680 -159.01634 44748 ft 547 kts 53°
2026-04-19 03:35 61.88181 -158.88820 44767 ft 546 kts 52°
2026-04-19 03:36 61.92692 -158.75903 44778 ft 545 kts 52°
2026-04-19 03:36 61.97140 -158.63095 44761 ft 545 kts 52°
2026-04-19 03:37 62.01613 -158.50145 44780 ft 545 kts 52°
2026-04-19 03:37 62.06076 -158.37144 44797 ft 544 kts 52°
2026-04-19 03:38 62.10488 -158.24226 44790 ft 545 kts 53°
2026-04-19 03:38 62.14918 -158.11175 44785 ft 545 kts 53°
2026-04-19 03:39 62.19347 -157.98058 44777 ft 545 kts 53°
2026-04-19 03:39 62.23734 -157.84990 44759 ft 545 kts 53°
2026-04-19 03:40 62.28117 -157.71858 44772 ft 544 kts 52°
2026-04-19 03:40 62.32483 -157.58704 44783 ft 544 kts 53°
2026-04-19 03:41 62.36839 -157.45502 44791 ft 543 kts 53°
2026-04-19 03:41 62.41180 -157.32268 44788 ft 543 kts 54°
2026-04-19 03:42 62.45505 -157.19003 44794 ft 542 kts 54°
2026-04-19 03:42 62.49802 -157.05756 44788 ft 543 kts 53°
2026-04-19 03:43 62.54119 -156.92362 44790 ft 543 kts 53°
2026-04-19 03:43 62.58382 -156.79059 44791 ft 543 kts 53°
2026-04-19 03:44 62.62658 -156.65639 44805 ft 542 kts 53°
2026-04-19 03:44 62.66902 -156.52237 44817 ft 542 kts 53°
2026-04-19 03:45 62.71133 -156.38808 44805 ft 542 kts 53°
2026-04-19 03:45 62.75384 -156.25220 44774 ft 543 kts 54°
2026-04-19 03:46 62.79578 -156.11746 44797 ft 542 kts 54°
2026-04-19 03:46 62.83775 -155.98177 44826 ft 541 kts 54°
2026-04-19 03:47 62.87962 -155.84561 44830 ft 540 kts 54°
2026-04-19 03:47 62.92124 -155.70944 44837 ft 541 kts 54°
2026-04-19 03:48 62.96119 -155.57098 44819 ft 543 kts 59°
2026-04-19 03:48 62.99587 -155.42375 44808 ft 544 kts 60°
2026-04-19 03:49 63.03061 -155.27678 44815 ft 544 kts 61°
2026-04-19 03:49 63.06511 -155.13005 44817 ft 544 kts 61°
2026-04-19 03:50 63.09959 -154.98241 44823 ft 544 kts 60°
2026-04-19 03:50 63.13385 -154.83470 44816 ft 544 kts 60°
2026-04-19 03:51 63.16818 -154.68567 44824 ft 544 kts 61°
2026-04-19 03:51 63.20207 -154.53757 44818 ft 545 kts 61°
2026-04-19 03:52 63.23595 -154.38838 44834 ft 545 kts 60°
2026-04-19 03:52 63.26980 -154.23836 44785 ft 546 kts 62°
2026-04-19 03:53 63.30327 -154.08900 44837 ft 546 kts 62°
2026-04-19 03:53 63.33684 -153.93808 44825 ft 546 kts 62°
2026-04-19 03:54 63.36664 -153.80324 44695 ft 538 kts 61°
2026-04-19 03:54 63.39893 -153.65611 44562 ft 527 kts 61°
2026-04-19 03:55 63.43093 -153.50937 44463 ft 528 kts 62°
2026-04-19 03:55 63.44674 -153.43648 44195 ft 533 kts 62°
2026-04-19 03:55 63.46299 -153.36130 43670 ft 537 kts 62°
2026-04-19 03:55 63.47902 -153.28685 43154 ft 538 kts 62°
2026-04-19 03:56 63.49507 -153.21199 42598 ft 538 kts 62°
2026-04-19 03:56 63.51124 -153.13637 42014 ft 539 kts 61°
2026-04-19 03:56 63.52725 -153.06116 41397 ft 539 kts 61°
2026-04-19 03:56 63.54327 -152.98578 40834 ft 542 kts 60°
2026-04-19 03:57 63.55930 -152.90990 40209 ft 545 kts 60°
2026-04-19 03:57 63.57540 -152.83360 39606 ft 546 kts 60°
2026-04-19 03:57 63.59155 -152.75673 39008 ft 551 kts 59°
2026-04-19 03:57 63.60781 -152.67899 38441 ft 554 kts 59°
2026-04-19 03:58 63.62406 -152.60097 37751 ft 555 kts 59°
2026-04-19 03:58 63.64034 -152.52255 37148 ft 557 kts 58°
2026-04-19 03:58 63.65648 -152.44459 36549 ft 563 kts 58°
2026-04-19 03:58 63.67288 -152.36496 35944 ft 566 kts 58°
2026-04-19 03:59 63.68946 -152.28432 35304 ft 573 kts 58°
2026-04-19 03:59 63.70616 -152.20271 34686 ft 583 kts 58°
2026-04-19 03:59 63.72301 -152.11987 34042 ft 587 kts 58°
2026-04-19 03:59 63.73991 -152.03644 33360 ft 588 kts 58°
2026-04-19 04:00 63.75686 -151.95264 32704 ft 589 kts 57°
2026-04-19 04:00 63.77374 -151.86874 32040 ft 586 kts 57°
2026-04-19 04:00 63.79051 -151.78526 31389 ft 592 kts 57°
2026-04-19 04:00 63.80738 -151.70056 30751 ft 591 kts 57°
2026-04-19 04:01 63.82390 -151.61734 30094 ft 579 kts 57°
2026-04-19 04:01 63.85602 -151.45465 28947 ft 554 kts 56°
2026-04-19 04:01 63.87146 -151.37627 28363 ft 547 kts 56°
2026-04-19 04:02 63.88669 -151.29857 27766 ft 546 kts 58°
2026-04-19 04:02 63.90196 -151.22015 27152 ft 538 kts 58°
2026-04-19 04:02 63.91679 -151.14351 26556 ft 528 kts 58°
2026-04-19 04:02 63.93142 -151.06824 25944 ft 526 kts 58°
2026-04-19 04:03 63.94601 -150.99237 25348 ft 518 kts 58°
2026-04-19 04:03 63.96029 -150.91812 24793 ft 515 kts 59°
2026-04-19 04:03 63.97431 -150.84470 24243 ft 509 kts 59°
2026-04-19 04:03 63.98834 -150.77125 23715 ft 506 kts 60°
2026-04-19 04:04 64.00202 -150.69914 23186 ft 496 kts 60°
2026-04-19 04:04 64.01553 -150.62769 22653 ft 488 kts 60°
2026-04-19 04:04 64.02874 -150.55780 22073 ft 480 kts 62°
2026-04-19 04:04 64.04169 -150.48871 21541 ft 471 kts 62°
2026-04-19 04:05 64.05445 -150.42073 21039 ft 466 kts 63°
2026-04-19 04:05 64.06699 -150.35350 20505 ft 459 kts 63°
2026-04-19 04:05 64.07936 -150.28706 19963 ft 452 kts 64°
2026-04-19 04:05 64.09148 -150.22166 19465 ft 446 kts 65°
2026-04-19 04:06 64.10342 -150.15695 18943 ft 438 kts 65°
2026-04-19 04:06 64.11506 -150.09384 18481 ft 435 kts 66°
2026-04-19 04:06 64.12671 -150.03035 17994 ft 432 kts 66°
2026-04-19 04:06 64.13819 -149.96765 17551 ft 427 kts 66°
2026-04-19 04:07 64.14963 -149.90494 17051 ft 425 kts 67°
2026-04-19 04:07 64.16073 -149.84387 16613 ft 419 kts 67°
2026-04-19 04:07 64.17181 -149.78273 16209 ft 413 kts 67°
2026-04-19 04:07 64.18275 -149.72226 15814 ft 410 kts 68°
2026-04-19 04:08 64.19355 -149.66228 15388 ft 408 kts 68°
2026-04-19 04:08 64.20431 -149.60234 14931 ft 402 kts 68°
2026-04-19 04:08 64.21489 -149.54332 14495 ft 400 kts 68°
2026-04-19 04:08 64.22518 -149.48563 14060 ft 393 kts 68°
2026-04-19 04:09 64.23546 -149.42792 13640 ft 390 kts 69°
2026-04-19 04:09 64.24564 -149.37050 13207 ft 386 kts 68°
2026-04-19 04:09 64.25574 -149.31346 12767 ft 384 kts 69°
2026-04-19 04:09 64.26553 -149.25794 12363 ft 379 kts 69°
2026-04-19 04:10 64.27534 -149.20224 11954 ft 373 kts 69°
2026-04-19 04:10 64.28502 -149.14708 11549 ft 371 kts 69°
2026-04-19 04:10 64.29459 -149.09239 11133 ft 368 kts 70°
2026-04-19 04:10 64.30405 -149.03822 10722 ft 362 kts 70°
2026-04-19 04:11 64.31322 -148.98557 10355 ft 349 kts 70°
2026-04-19 04:11 64.32201 -148.93474 9969 ft 338 kts 70°
2026-04-19 04:11 64.33057 -148.88538 9602 ft 327 kts 69°
2026-04-19 04:11 64.33874 -148.83807 9246 ft 317 kts 70°
2026-04-19 04:12 64.34677 -148.79146 8904 ft 307 kts 69°
2026-04-19 04:12 64.35445 -148.74677 8583 ft 299 kts 70°
2026-04-19 04:12 64.36196 -148.70291 8261 ft 292 kts 70°
2026-04-19 04:12 64.36936 -148.65964 7931 ft 285 kts 69°
2026-04-19 04:13 64.37651 -148.61781 7631 ft 280 kts 70°
2026-04-19 04:13 64.38359 -148.57610 7347 ft 278 kts 70°
2026-04-19 04:13 64.39064 -148.53464 7010 ft 276 kts 70°
2026-04-19 04:13 64.39759 -148.49368 6726 ft 274 kts 69°
2026-04-19 04:14 64.40445 -148.45311 6425 ft 275 kts 70°
2026-04-19 04:14 64.41132 -148.41231 6123 ft 269 kts 70°
2026-04-19 04:14 64.41796 -148.37295 5823 ft 263 kts 70°
2026-04-19 04:14 64.42452 -148.33392 5527 ft 258 kts 70°
2026-04-19 04:15 64.43096 -148.29546 5254 ft 256 kts 69°
2026-04-19 04:15 64.44103 -148.26250 5021 ft 254 kts 36°
2026-04-19 04:15 64.45760 -148.25037 5043 ft 253 kts
2026-04-19 04:15 64.47529 -148.25009 5079 ft 258 kts 358°
2026-04-19 04:16 64.49233 -148.24957 5171 ft 232 kts 359°
2026-04-19 04:16 64.50769 -148.24881 5159 ft 213 kts 360°
2026-04-19 04:16 64.52176 -148.24794 5162 ft 195 kts
2026-04-19 04:16 64.53534 -148.24705 5143 ft 194 kts
2026-04-19 04:17 64.54884 -148.24609 5149 ft 195 kts
2026-04-19 04:17 64.56247 -148.24509 5151 ft 197 kts
2026-04-19 04:17 64.57608 -148.24406 5129 ft 196 kts
2026-04-19 04:17 64.58970 -148.24301 4971 ft 196 kts
2026-04-19 04:18 64.60339 -148.24188 4747 ft 195 kts
2026-04-19 04:18 64.61588 -148.23119 4538 ft 195 kts 36°
2026-04-19 04:18 64.62614 -148.21039 4327 ft 196 kts 41°
2026-04-19 04:18 64.63627 -148.19032 4166 ft 187 kts 39°
2026-04-19 04:19 64.64601 -148.17174 3999 ft 175 kts 38°
2026-04-19 04:19 64.65518 -148.15463 3990 ft 168 kts 38°
2026-04-19 04:19 64.66353 -148.13924 3977 ft 143 kts 38°
2026-04-19 04:19 64.67123 -148.12514 3848 ft 142 kts 37°
2026-04-19 04:20 64.67901 -148.11101 3683 ft 142 kts 38°
2026-04-19 04:20 64.68674 -148.09701 3516 ft 139 kts 38°
2026-04-19 04:20 64.69437 -148.08321 3322 ft 139 kts 38°
2026-04-19 04:20 64.70200 -148.06931 3129 ft 139 kts 38°
2026-04-19 04:21 64.70960 -148.05550 2935 ft 138 kts 39°
2026-04-19 04:21 64.71712 -148.04182 2743 ft 138 kts 38°
2026-04-19 04:21 64.72466 -148.02812 2546 ft 137 kts 38°
2026-04-19 04:21 64.73217 -148.01447 2352 ft 137 kts 38°
2026-04-19 04:22 64.73962 -148.00092 2156 ft 136 kts 38°
2026-04-19 04:22 64.74706 -147.98738 1971 ft 135 kts 39°
2026-04-19 04:22 64.75441 -147.97394 1772 ft 135 kts 38°
2026-04-19 04:22 64.76186 -147.96036 1577 ft 135 kts 38°
2026-04-19 04:23 64.76919 -147.94702 1387 ft 134 kts 38°
2026-04-19 04:23 64.77642 -147.93381 1200 ft 132 kts 39°
2026-04-19 04:23 64.78370 -147.92049 1011 ft 132 kts 39°
2026-04-19 04:23 64.79085 -147.90741 828 ft 131 kts 39°
2026-04-19 04:24 64.79798 -147.89435 642 ft 130 kts 39°
2026-04-19 04:24 64.80512 -147.88130 460 ft 128 kts 39°
2026-04-19 04:24 64.81110 -147.87013 436 ft 84 kts 38°
2026-04-19 04:24 64.81442 -147.86412 436 ft 61 kts 39°
2026-04-19 04:25 64.81753 -147.85834 435 ft 52 kts 34°
2026-04-19 04:25 64.82018 -147.85361 435 ft 45 kts 39°
2026-04-19 04:25 64.82250 -147.84920 435 ft 40 kts 35°
2026-04-19 04:25 64.82461 -147.84551 434 ft 36 kts 38°
2026-04-19 04:26 64.82621 -147.84299 434 ft 15 kts 358°
2026-04-19 04:26 64.82692 -147.84476 434 ft 15 kts 297°
2026-04-19 04:26 64.82703 -147.84714 434 ft 15 kts 255°
2026-04-19 04:26 64.82672 -147.84836 434 ft 0 kts 218°